{"data":{"norad_id":56557,"intl_designator":"2023-065BG","name":"STARLINK-6265","alt_names":[],"object_type":"PAYLOAD","status":"ACTIVE","operator":null,"country":"US","launch_date":"2023-05-14","launch_site_code":"AFETR","launch_vehicle":null,"mission":null,"orbit_class":"UNKNOWN","rcs_meters":null,"size_class":null,"mass_kg":null,"dimensions":null,"purposes":["comms"],"wikipedia_slug":null,"has_3d_model":false,"image_url":null,"decayed_at":null,"tle_current":{"epoch":"2026-09-20T13:15:44.073216Z","epoch_age_seconds":110375,"freshness":"FRESH","line1":"1 56557U 23065BG  26263.55259344  .00000102  00000+0  13225-4 0  9999","line2":"2 56557  43.0045 203.1239 0000964 282.4333  77.6411 15.27578387186273","mean_motion":15.27578387,"eccentricity":9.64e-5,"inclination_deg":43.0045,"raan_deg":203.1239,"arg_perigee_deg":282.4333,"mean_anomaly_deg":77.6411,"bstar":1.3225e-5,"rev_number":18627,"period_min":94.266848251762,"perigee_km":482.39250714092,"apogee_km":483.71534475144,"semimajor_km":6861.1909259462,"source":"CELESTRAK","updated_at":"2026-09-21T09:00:33.480252Z"}}}